sat.trackr.live / text

‹ back to catalog

STARLINK-35992

NORAD 66852 · 2025-281E

PAYLOAD ACTIVE UNKNOWN

§ Identity

Operator
Country
US
Launch date
2025-12-02
Launch site
AFETR
Launch vehicle
Mass (kg)
RCS (m²)

Purposes: comms

External: N2YO · Heavens-Above · Gunter

§ Orbital elements

Epoch: 2026-09-20T10:52:16.842144Z

Period
94.27 min
Inclination
43.0013°
Eccentricity
0.0001796
Mean motion
15.27586312 rev/d
Perigee alt
481.8 km
Apogee alt
484.3 km
Semi-major
6,861.2 km
B*
4.0483e-4
RAAN
323.4146°
Arg perigee
276.7624°
Mean anomaly
83.3024°
Rev number
4,597

§ Raw data

STARLINK-359921 66852U 25281E   26263.45297271  .00010897  00000+0  40483-3 0  99972 66852  43.0013 323.4146 0001796 276.7624  83.3024 15.27586312 45975

JSON: /api/v1/satellites/66852 · /tle

For live sub-satellite position, see the globe view (requires WebGL).

§ Visibility from observer

Set your observer location to see the next 7 days of passes ≥ 10°. The values pass through the URL so the page stays shareable.

No JS? Fill the form by hand. The geolocation button needs JavaScript.